SCP
0 0 0 0 0 0 0 0 0 0 0 0 0 0 0 0 0 0 0 0 0 0 0 0 0 0 0 0 0 0 0 0 0 0 0 0 0 0 0 0 0 0 0 0 0 0 0 0 0
0 0 0 0 0 0 0 0 0 0 0 0 0 0 0 0 0 0 0 0 0 0 0 0 0 0 0 0 0 0 0 0 0 0 0 0 0 0 0 0 0 0 0 0 0 0 0 0 0
0 0 0 0 0 0 0 0 0 0 0 0 0 0 0 0 0 0 0 0 0 0 0 0 0 0 0 0 0 0 0 0 0 0 0 0 0 0 0 0 0 0 0 0 0 0 0 0 0
0 0 0 0 0 0 0 0 0 0 0 0 0 0 0 0 0 0 0 0 0 0 0 0 0 0 0 0 0 0 0 0 0 0 0 0 0 0 0 0 0 0 0 0 0 0 0 0 0
0 0 0 0 0 0 0 0 0 0 0 0 0 0 0 0 0 0 0 0 0 0 0 0 0 0 0 0 0 0 0 0 0 0 0 0 0 0 0 0 0 0 0 0 0 0 0 0 0
0 0 0 0 0 0 0 0 0 0 0 0 0 0 0 0 0 0 0 0 0 0 0 0 0 0 0 0 0 0 0 0 0 0 0 0 0 0 0 0 0 0 0 0 0 0 0 0 0
0 0 0 0 0 0 0 0 0 0 0 0 0 0 0 0 0 0 0 0 0 0 0 0 0 0 0 0 0 0 0 0 0 0 0 0 0 0 0 0 0 0 0 0 0 0 0 0 0
0 0 0 0 0 0 0 0 0 0 0 0 0 0 0 0 0 0 0 0 0 0 0 0 0 0 0 0 0 0 0 0 0 0 0 0 0 0 0 0 0 0 0 0 0 0 0 0 0
0 0 0 0 0 0 0 0 0 0 0 0 0 0 0 0 0 0 0 0 0 0 0 0 0 0 0 0 0 0 0 0 0 0 0 0 0 0 0 0 0 0 0 0 0 0 0 0 0
0 0 0 0 0 0 0 0 0 0 0 0 0 0 0 0 0 0 0 0 0 0 0 0 0 0 0 0 0 0 0 0 0 0 0 0 0 0 0 0 0 0 0 0 0 0 0 0 0
0 0 0 0 0 0 0 0 0 0 0 0 0 0 0 0 0 0 0 0 0 0 0 0 0 0 0 0 0 0 0 0 0 0 0 0 0 0 0 0 0 0 0 0 0 0 0 0 0
0 0 0 0 0 0 0 0 0 0 0 0 0 0 0 0 0 0 0 0 0 0 0 0 0 0 0 0 0 0 0 0 0 0 0 0 0 0 0 0 0 0 0 0 0 0 0 0 0
0 0 0 0 0 0 0 0 0 0 0 0 0 0 0 0 0 0 0 0 0 0 0 0 0 0 0 0 0 0 0 0 0 0 0 0 0 0 0 0 0 0 0 0 0 0 0 0 0
0 0 0 0 0 0 0 0 0 0 0 0 0 0 0 0 0 0 0 0 0 0 0 0 0 0 0 0 0 0 0 0 0 0 0 0 0 0 0 0 0 0 0 0 0 0 0 0 0
0 0 0 0 0 0 0 0 0 0 0 0 0 0 0 0 0 0 0 0 0 0 0 0 0 0 0 0 0 0 0 0 0 0 0 0 0 0 0 0 0 0 0 0 0 0 0 0 0
0 0 0 0 0 0 0 0 0 0 0 0 0 0 0 0 0 0 0 0 0 0 0 0 0 0 0 0 0 0 0 0 0 0 0 0 0 0 0 0 0 0 0 0 0 0 0 0 0
0 0 0 0 0 0 0 0 0 0 0 0 0 0 1 1 1 0 0 0 0 0 0 0 0 0 0 0 0 0 0 0 0 0 0 0 0 0 0 0 0 0 0 0 0 0 0 0 0
0 0 0 0 0 0 0 0 0 0 0 0 0 1 1 0 0 0 0 0 0 0 0 0 0 0 0 0 0 0 0 0 0 0 0 0 0 0 0 0 0 0 0 0 0 0 0 0 0
0 0 0 0 0 0 0 0 0 0 0 0 0 1 0 0 0 1 1 1 1 1 1 1 1 0 0 0 0 0 0 0 0 0 0 0 0 0 0 0 0 0 0 0 0 0 0 0 0
0 0 0 0 0 0 0 0 0 0 0 0 0 1 0 0 0 1 1 1 1 1 1 1 1 1 0 0 0 0 0 0 0 0 0 0 0 0 0 0 0 0 0 0 0 0 0 0 0
0 0 0 0 0 0 0 0 0 0 0 0 0 0 1 1 1 1 1 1 1 1 1 1 1 1 0 0 0 0 0 0 0 0 0 0 0 0 0 0 0 0 0 0 0 0 0 0 0
0 0 0 0 0 0 0 0 0 0 0 0 0 0 1 1 1 1 1 1 1 1 1 1 1 1 0 0 0 0 0 0 0 0 0 0 0 0 0 0 0 0 0 0 0 0 0 0 0
0 0 0 0 0 0 0 0 0 0 0 0 0 1 1 1 1 1 1 1 1 1 1 1 1 0 0 0 0 0 0 0 0 0 0 0 0 0 0 0 0 0 0 0 0 0 0 0 0
0 0 0 0 0 0 0 0 0 0 0 0 1 1 1 1 1 1 0 0 1 1 1 1 1 0 0 0 0 0 0 0 0 0 0 0 0 0 0 0 0 0 0 0 0 0 0 0 0
0 0 0 0 0 0 0 0 0 0 0 0 1 1 1 0 0 0 0 0 0 0 1 1 1 1 0 0 0 0 0 0 0 0 0 0 0 0 0 0 0 0 0 0 0 0 0 0 0
0 0 0 0 0 0 0 0 0 0 0 0 1 0 0 0 0 0 0 0 0 0 1 1 1 1 1 0 0 0 0 0 0 0 0 0 0 0 0 0 0 0 0 0 0 0 0 0 0
0 0 0 0 0 0 0 0 0 0 0 0 0 0 0 0 0 0 0 0 0 0 0 0 1 1 1 0 0 0 0 0 0 0 0 0 0 0 0 0 0 0 0 0 0 0 0 0 0
0 0 0 0 0 0 0 0 0 0 0 0 0 0 0 0 0 0 0 0 0 0 0 0 0 0 0 0 0 1 1 1 1 0 0 0 0 0 0 0 0 0 0 0 0 0 0 0 0
0 0 0 0 0 0 0 0 0 0 0 0 0 0 0 0 0 0 0 0 0 0 0 0 0 0 0 0 0 1 1 1 1 1 0 0 0 0 0 0 0 0 0 0 0 0 0 0 0
0 0 0 0 0 0 0 0 0 0 0 0 0 0 0 0 0 0 0 0 0 0 0 0 0 0 0 0 0 0 1 1 1 1 1 0 0 0 0 0 0 0 0 0 0 0 0 0 0
Wind_Speed
7 5 2 1 2 3 2 2 4 6 6 7 9 10 9 7 5 5 1 7 9 7 5 6 8 9 9 9 9 9 9 9 9 10 9 9 8 8 8 8 7 8 8 9 8 8 8 8 8
5 4 1 1 3 3 2 2 6 7 8 8 10 10 8 7 6 7 4 7 9 7 5 6 9 9 9 9 9 9 9 8 9 9 9 8 8 8 8 7 7 7 7 8 8 7 7 7 8
4 3 0 2 1 2 2 3 6 9 9 7 6 6 6 5 6 6 6 10 8 6 4 6 10 10 9 9 9 9 8 8 10 10 9 9 8 8 8 7 6 7 7 7 7 6 6 6 7
2 1 1 2 1 2 4 4 7 9 8 7 8 6 4 4 5 7 11 11 9 6 5 6 10 10 9 9 9 9 9 9 10 10 9 8 8 8 7 6 6 6 6 6 5 5 5 4 5
1 1 2 1 1 1 3 5 6 8 6 7 9 7 4 3 9 11 11 10 9 6 4 6 10 10 9 9 9 9 9 9 9 9 8 8 7 7 6 6 6 5 5 5 4 4 4 5 5
1 2 2 1 1 1 3 6 9 10 9 9 8 6 3 4 9 9 10 9 8 8 6 5 9 9 9 8 8 8 8 8 8 8 7 7 7 7 6 5 5 5 5 4 4 4 4 5 5
1 1 1 1 3 4 5 6 7 8 8 6 7 6 3 4 7 8 8 8 7 6 5 3 4 5 7 7 7 8 8 7 7 7 7 6 6 6 5 5 4 4 4 3 4 4 4 4 5
3 1 1 1 4 4 4 5 6 8 7 8 6 7 5 5 7 8 8 7 7 6 4 3 3 2 2 3 5 6 7 7 6 6 5 5 4 4 4 3 4 4 3 3 3 4 4 4 4
1 2 1 3 4 4 6 7 4 6 9 6 5 6 7 9 9 9 7 6 5 5 4 3 3 2 2 2 4 4 5 5 5 4 4 3 1 1 1 2 3 3 3 3 3 4 4 4 4
3 1 2 2 5 5 5 7 5 6 9 7 7 8 9 9 9 9 8 7 5 5 4 3 4 3 2 2 2 1 2 2 2 1 1 1 1 1 1 2 2 2 2 3 3 3 3 2 1
3 3 1 1 5 6 6 5 5 8 6 8 11 11 10 9 8 8 7 6 6 5 4 3 3 3 3 2 2 1 1 1 1 1 1 1 1 0 0 0 1 1 1 1 1 2 1 1 1
2 2 2 2 4 5 5 5 5 6 7 11 13 12 10 9 8 8 7 6 5 5 5 3 3 3 2 2 2 2 1 1 1 1 1 1 1 0 0 0 0 0 0 1 1 1 1 1 1
2 1 1 2 4 4 6 6 7 6 10 12 13 11 10 9 7 6 7 7 6 5 4 4 3 3 3 2 1 2 1 1 1 1 1 2 1 1 1 0 0 0 0 0 0 1 1 1 1
2 2 1 1 3 4 8 6 6 7 11 12 12 10 9 9 9 7 7 6 6 5 4 4 3 3 3 3 2 2 2 1 1 1 1 2 1 1 1 0 0 0 1 0 0 1 1 0 0
1 2 3 0 3 4 8 4 5 9 10 11 11 10 9 9 8 8 8 8 7 6 4 4 4 3 3 3 2 2 2 2 1 0 1 1 2 1 1 1 0 0 1 1 1 1 1 1 0
3 3 2 3 3 4 7 3 5 8 10 9 9 10 9 7 8 8 8 7 6 6 5 4 4 3 3 2 2 2 2 2 1 0 1 1 1 1 1 1 0 0 0 1 1 1 1 1 1
3 1 2 3 3 3 5 4 6 8 9 8 8 9 8 7 7 7 8 8 7 7 5 4 4 3 2 3 2 2 2 1 1 1 1 1 1 1 1 1 0 0 1 1 1 1 1 1 1
4 2 3 3 2 2 4 3 5 6 8 8 9 8 8 8 7 7 7 7 7 6 6 5 4 3 3 3 2 2 1 1 1 1 1 1 1 1 1 1 1 1 1 1 1 1 1 1 0
4 2 3 4 4 2 3 4 6 5 6 7 8 8 7 7 7 7 8 7 7 6 6 5 4 3 2 2 1 1 1 0 1 1 1 1 1 1 2 2 1 1 1 1 1 1 1 2 1
3 1 2 3 1 2 2 2 4 5 8 10 10 9 9 7 6 7 7 7 7 6 6 5 4 3 2 2 2 2 1 1 0 0 1 1 1 1 2 2 1 1 1 2 2 2 1 1 1
4 3 3 2 2 3 3 2 2 3 4 6 7 7 8 10 10 9 7 6 6 6 6 5 4 3 2 2 2 2 2 2 2 1 1 1 1 1 1 1 1 1 1 1 1 1 1 0 1
4 5 3 2 2 2 2 0 4 3 2 4 5 5 6 7 8 8 8 7 7 7 6 5 5 4 3 2 2 2 2 1 1 1 0 1 1 1 1 1 1 1 1 1 1 1 0 1 1
4 2 1 2 2 1 2 2 6 0 1 3 5 6 6 7 8 8 8 8 7 7 6 5 5 4 3 3 3 3 2 1 0 0 1 1 1 1 1 1 2 1 1 1 1 1 1 1 1
1 4 6 5 5 2 3 3 5 3 6 6 5 6 7 7 7 6 6 6 6 6 5 5 4 3 3 3 3 3 3 2 1 0 0 0 1 1 1 1 1 1 1 1 1 1 1 1 1
3 6 5 6 4 4 2 2 6 5 4 6 7 6 6 6 6 6 6 6 6 6 6 5 5 4 3 3 3 3 3 3 2 2 2 1 0 0 1 1 1 1 0 1 1 1 1 1 1
2 8 6 3 3 4 3 1 5 2 3 4 5 5 5 5 5 6 6 6 7 7 6 6 6 5 4 3 3 2 2 2 2 2 2 2 1 1 1 1 1 1 1 1 1 1 1 2 1
2 2 6 7 1 1 2 2 4 2 3 4 5 5 5 5 5 5 5 5 5 6 6 6 6 5 4 4 4 3 3 2 2 1 1 1 1 1 1 1 1 1 1 1 1 1 1 1 1
4 4 5 5 3 1 3 3 4 3 3 3 4 5 5 5 5 5 5 4 4 5 4 5 5 5 5 4 4 3 3 3 2 1 1 1 1 1 2 1 1 1 1 1 1 0 1 1 1
1 2 4 4 4 5 2 6 6 8 7 7 5 6 6 6 6 5 4 4 4 4 4 3 3 3 3 3 3 2 2 2 2 2 2 1 1 1 1 1 1 1 0 0 0 0 1 1 1
3 4 6 4 2 3 3 6 2 6 5 7 6 6 6 6 5 5 5 5 4 4 4 3 3 2 2 2 2 3 2 2 2 1 1 2 1 1 2 1 1 0 0 0 0 1 0 0 1
Wind_Direction
164 159 166 206 43 42 52 63 78 66 63 63 72 80 80 68 92 127 163 134 138 142 146 135 126 121 120 120 118 118 118 121 126 126 125 123 123 126 129 132 137 146 151 154 155 162 164 165 166
160 166 194 31 64 57 26 85 79 90 114 103 78 78 75 71 88 114 124 144 144 141 143 135 128 122 120 120 117 115 117 122 131 131 127 123 122 122 120 123 129 137 142 146 148 153 162 170 175
171 191 175 53 79 139 142 123 102 95 100 93 81 58 66 90 106 131 150 144 136 134 136 139 130 125 125 123 119 116 113 111 124 125 125 123 122 124 122 122 123 129 136 141 148 154 164 175 185
169 159 42 56 144 174 153 149 121 104 80 73 91 74 59 82 118 137 140 140 135 138 141 144 134 127 124 126 122 121 119 116 117 121 124 125 124 124 126 128 131 133 135 138 146 158 168 178 184
133 87 48 32 164 141 144 137 113 107 93 87 92 98 76 61 111 130 139 140 137 141 141 145 139 134 129 127 126 122 120 118 119 121 125 130 134 137 139 140 139 140 141 144 154 168 176 180 179
58 64 68 116 129 112 112 117 102 102 108 109 104 107 98 109 121 134 140 139 140 143 145 144 146 141 138 136 135 132 130 127 126 127 128 134 143 146 147 148 146 150 150 149 162 175 187 190 192
109 79 249 185 109 98 117 117 113 119 118 118 121 102 109 126 136 131 127 126 129 136 140 145 150 149 147 145 142 139 136 136 136 135 135 136 140 149 155 158 154 157 160 165 177 185 198 202 205
160 112 310 152 110 109 116 103 114 121 115 123 119 122 150 161 129 115 110 114 121 130 141 147 149 143 146 151 153 147 145 145 142 140 142 144 143 143 146 158 169 174 180 188 197 200 210 211 211
140 70 243 177 136 135 124 109 98 94 109 106 101 128 145 137 118 110 105 99 109 122 132 144 146 147 165 173 161 152 148 149 147 145 150 143 116 131 158 170 174 181 190 204 209 213 218 219 220
136 149 241 172 147 145 136 124 128 103 98 96 99 105 121 121 120 121 121 123 125 131 142 149 144 154 150 152 131 129 127 120 118 108 129 135 136 192 193 194 197 214 227 232 225 232 241 249 233
181 195 215 124 135 134 127 123 122 119 119 144 143 140 135 126 125 128 131 139 145 146 142 141 136 141 147 141 131 126 115 108 110 129 132 127 122 189 210 141 278 284 284 289 274 269 265 224 204
184 204 181 146 130 125 129 126 113 128 152 149 144 144 139 138 141 143 143 143 136 136 145 146 139 129 136 132 142 137 133 131 145 165 153 139 133 117 110 150 234 282 293 273 258 255 244 227 221
153 173 226 169 130 133 117 113 110 120 134 137 138 140 141 144 148 145 139 136 132 131 137 145 134 130 128 113 128 124 133 148 154 133 152 150 142 134 105 77 60 289 281 260 273 263 249 236 228
223 239 259 128 118 111 113 110 105 142 142 139 141 142 148 150 148 136 130 130 129 132 136 136 128 127 118 113 112 108 113 121 106 110 132 134 135 126 119 99 70 330 304 295 259 274 283 279 239
324 6 351 57 125 127 109 84 141 158 148 147 148 148 149 152 150 146 149 147 142 141 138 134 129 113 111 109 111 108 113 103 96 97 100 104 107 111 116 112 98 313 315 328 3 352 9 21 1
6 37 353 273 170 155 116 163 196 162 151 156 155 153 154 156 156 155 152 147 141 137 140 140 132 122 120 117 112 109 102 101 106 98 85 87 92 100 100 92 33 300 50 49 45 21 17 10 2
4 339 284 282 215 157 127 177 200 172 156 157 159 158 158 156 156 159 153 151 148 145 144 139 129 130 130 116 108 103 93 87 97 107 98 95 95 98 105 86 343 35 64 58 36 43 50 24 347
248 244 257 254 251 122 124 163 185 177 165 161 163 161 161 162 166 161 154 153 151 150 145 139 130 131 128 108 92 80 71 47 49 88 90 95 83 90 91 69 28 42 62 47 39 37 21 36 310
220 223 239 250 237 132 157 165 186 177 160 161 160 165 166 169 163 151 151 155 152 151 146 146 136 137 128 123 135 141 157 293 5 35 70 88 91 95 89 65 47 46 64 51 40 51 28 13 23
252 240 264 287 260 139 151 186 193 182 180 178 173 172 171 163 155 159 161 158 156 158 158 153 149 150 151 157 165 161 153 172 181 35 62 86 78 67 85 77 60 52 61 40 39 56 56 8 41
270 213 219 217 12 41 81 5 275 220 188 182 175 169 168 169 169 168 164 162 158 165 165 158 155 148 146 118 85 70 55 39 30 26 25 27 80 76 73 83 95 67 88 68 36 47 85 36 345
259 240 205 163 77 316 101 243 275 220 176 172 176 166 163 166 163 165 164 163 166 166 159 152 150 144 137 122 115 121 125 148 224 225 142 21 38 55 57 63 82 77 70 63 15 59 62 106 346
236 241 196 148 124 21 14 111 285 276 204 208 185 173 166 165 163 164 166 165 161 156 157 154 147 149 151 150 150 142 140 168 190 63 61 26 9 22 45 61 66 61 56 56 33 34 31 87 139
143 35 27 43 69 13 262 145 266 227 211 204 191 172 170 166 160 162 161 150 148 152 151 150 146 150 154 155 157 156 157 154 135 132 136 318 327 355 10 61 65 69 55 40 21 38 48 48 70
53 74 26 6 14 260 261 138 252 244 205 184 172 167 162 161 155 153 156 157 160 159 161 158 156 162 166 161 166 176 173 164 174 186 194 200 219 294 305 61 73 78 57 50 48 53 38 36 54
220 132 152 190 226 280 351 229 271 270 137 140 134 143 141 137 145 146 153 162 169 166 163 162 166 173 176 175 184 184 169 167 193 198 189 193 201 204 183 123 92 73 61 48 51 49 31 39 36
149 178 168 137 123 41 303 297 315 34 78 101 103 108 123 137 147 149 148 151 157 158 166 170 171 177 183 187 189 188 183 179 190 205 182 184 189 161 125 122 107 70 63 47 69 54 7 30 29
142 147 86 101 134 266 295 260 229 195 157 144 118 125 135 134 134 140 141 145 150 154 160 162 170 184 191 194 194 182 187 186 181 172 174 165 146 124 121 123 112 77 65 44 79 58 6 37 360
44 76 99 106 140 147 227 268 220 187 173 161 156 149 145 140 140 146 151 151 145 137 139 148 163 175 179 186 187 184 185 176 171 181 188 161 126 109 112 128 131 134 152 264 75 354 33 34 350
150 147 130 136 226 162 172 269 263 162 161 157 154 149 142 136 135 143 150 143 131 133 144 148 152 157 171 173 162 164 166 153 161 192 184 151 155 162 147 133 127 135 48 43 124 260 304 287 306